W6MAF Weather Reports


Display with metric or nautical units.
time (UTC)temp
F
wind
direction
speed
MPH
gust
MPH
rain 1hr
in
rain 24hr
in
rain mn
in
humidity
%
barometer
mb
20211017191706 69 160 17.0 18.0 0.00 0.00 0.00 10 1014.0
20211017191209 69 158 18.0 21.0 0.00 0.00 0.00 10 1014.1
20211017190707 69 158 18.0 21.0 0.00 0.00 0.00 10 1014.2
20211017190210 69 180 17.0 22.0 0.00 0.00 0.00 10 1014.2
20211017185713 69 187 18.0 20.0 0.00 0.00 0.00 9 1014.2
20211017185215 69 173 17.0 13.0 0.00 0.00 0.00 10 1014.2
20211017184717 69 193 19.0 15.0 0.00 0.00 0.00 11 1014.2
20211017184222 69 190 20.0 19.0 0.00 0.00 0.00
20211017184219 69 190 20.0 19.0 0.00 0.00 0.00 10 1014.3
20211017183718 69 187 17.0 16.0 0.00 0.00 0.00 11 1014.5
20211017183221 69 177 19.0 12.0 0.00 0.00 0.00 10 1014.5
20211017182723 69 183 14.0 16.0 0.00 0.00 0.00 10 1014.6
20211017182225 69 170 16.0 17.0 0.00 0.00 0.00 10 1014.6
20211017181727 69 167 14.0 14.0 0.00 0.00 0.00 10 1014.6
20211017181230 69 176 15.0 14.0 0.00 0.00 0.00 10 1014.6
20211017180729 69 186 18.0 16.0 0.00 0.00 0.00 10 1014.5
20211017180231 68 188 18.0 19.0 0.00 0.00 0.00 10 1014.3
20211017175733 68 190 12.0 19.0 0.00 0.00 0.00 11 1014.2
20211017175235 68 179 18.0 23.0 0.00 0.00 0.00 11 1014.1
20211017174738 67 188 17.0 20.0 0.00 0.00 0.00 11 1014.2
20211017174240 67 193 15.0 22.0 0.00 0.00 0.00 11 1014.1
20211017173739 66 211 18.0 17.0 0.00 0.00 0.00 11 1014.2
20211017173241 66 197 17.0 22.0 0.00 0.00 0.00 11 1014.3
20211017172743 66 203 15.0 13.0 0.00 0.00 0.00 11 1014.3
20211017172246 66 203 17.0 16.0 0.00 0.00 0.00 11 1014.3
20211017171748 66 197 14.0 15.0 0.00 0.00 0.00 11 1014.5
20211017171250 66 198 15.0 14.0 0.00 0.00 0.00 11 1014.5
20211017170749 66 187 16.0 8.0 0.00 0.00 0.00 11 1014.5
20211017170251 66 210 13.0 9.0 0.00 0.00 0.00 11 1014.5
20211017165754 66 190 14.0 15.0 0.00 0.00 0.00 11 1014.6
20211017165256 67 228 14.0 10.0 0.00 0.00 0.00 11 1014.6
20211017164758 67 183 15.0 17.0 0.00 0.00 0.00 11 1014.3
20211017164300 68 181 14.0 16.0 0.00 0.00 0.00 11 1014.5
20211017163759 67 204 9.0 11.0 0.00 0.00 0.00 12 1014.5
20211017163302 67 195 14.0 17.0 0.00 0.00 0.00 12 1014.3
20211017162806 67 194 15.0 16.0 0.00 0.00 0.00 12 1014.3
20211017162306 67 166 13.0 15.0 0.00 0.00 0.00 12 1014.3
20211017161808 66 201 17.0 20.0 0.00 0.00 0.00 12 1014.3
20211017161311 66 174 12.0 18.0 0.00 0.00 0.00 12 1014.3
20211017160810 66 208 13.0 9.0 0.00 0.00 0.00 13 1014.3
20211017160312 66 188 11.0 12.0 0.00 0.00 0.00 13 1014.2
20211017155814 65 174 11.0 10.0 0.00 0.00 0.00 14 1014.1
20211017155316 64 197 16.0 14.0 0.00 0.00 0.00 14 1014.2
20211017154818 63 169 12.0 12.0 0.00 0.00 0.00 15 1014.2
20211017154321 61 159 3.0 4.0 0.00 0.00 0.00 17 1014.2
20211017153821 60 191 0.0 0.0 0.00 0.00 0.00 18 1014.2
20211017153322 59 191 0.0 0.0 0.00 0.00 0.00 19 1014.1
20211017152824 58 191 0.0 0.0 0.00 0.00 0.00 19 1014.2
20211017152326 58 191 0.0 0.0 0.00 0.00 0.00 19 1014.1
20211017151829 57 191 0.0 0.0 0.00 0.00 0.00 19 1014.0
20211017151331 57 191 0.0 0.0 0.00 0.00 0.00 19 1014.0
20211017150830 57 191 0.0 0.0 0.00 0.00 0.00 20 1014.0
20211017150332 56 191 0.0 0.0 0.00 0.00 0.00 21 1013.9
20211017145834 54 191 0.0 0.0 0.00 0.00 0.00 23 1013.9
20211017145336 54 191 3.0 0.0 0.00 0.00 0.00 23 1013.8
20211017144341 52 215 8.0 7.0 0.00 0.00 0.00 25 1013.8
20211017143840 52 231 9.0 10.0 0.00 0.00 0.00 25 1013.8
20211017143342 51 226 7.0 7.0 0.00 0.00 0.00 25 1013.9
20211017142845 51 239 10.0 9.0 0.00 0.00 0.00 25 1013.9
20211017142347 51 229 10.0 9.0 0.00 0.00 0.00 25 1013.9
20211017141849 51 226 9.0 11.0 0.00 0.00 0.00 25 1013.9
20211017141352 51 218 9.0 9.0 0.00 0.00 0.00 24 1013.9
20211017140850 52 215 8.0 8.0 0.00 0.00 0.00 24 1013.9
20211017140352 52 221 9.0 7.0 0.00 0.00 0.00 24 1013.8
20211017135855 52 228 9.0 11.0 0.00 0.00 0.00 24 1013.8
20211017135357 52 219 11.0 10.0 0.00 0.00 0.00 24 1013.8
20211017134859 52 224 10.0 11.0 0.00 0.00 0.00 24 1013.8
20211017134401 52 232 12.0 11.0 0.00 0.00 0.00 24 1013.8
20211017133900 52 225 10.0 11.0 0.00 0.00 0.00 24 1013.8
20211017133403 52 195 10.0 10.0 0.00 0.00 0.00 23 1013.8
20211017132905 53 212 9.0 10.0 0.00 0.00 0.00 23 1013.8
20211017132407 53 214 8.0 7.0 0.00 0.00 0.00 23 1013.8
20211017131909 53 211 8.0 7.0 0.00 0.00 0.00 22 1013.8
20211017131411 54 184 8.0 8.0 0.00 0.00 0.00 22 1013.8
20211017130910 53 180 9.0 9.0 0.00 0.00 0.00 22 1013.8
20211017125915 53 215 9.0 10.0 0.00 0.00 0.00 23 1013.8
20211017125417 53 187 8.0 8.0 0.00 0.00 0.00 22 1013.8
20211017124920 53 181 8.0 8.0 0.00 0.00 0.00 22 1013.8
20211017124422 53 197 7.0 7.0 0.00 0.00 0.00 22 1013.8
20211017123921 53 180 7.0 7.0 0.00 0.00 0.00 22 1013.8
20211017123423 53 197 7.0 8.0 0.00 0.00 0.00 22 1013.8
20211017122925 52 194 7.0 9.0 0.00 0.00 0.00 23 1013.8
20211017122427 52 205 7.0 7.0 0.00 0.00 0.00 24 1013.8
20211017121929 51 187 6.0 6.0 0.00 0.00 0.00 24 1013.8
20211017121432 50 204 5.0 4.0 0.00 0.00 0.00 25 1013.8
20211017120931 50 179 4.0 3.0 0.00 0.00 0.00 25 1013.9
20211017120433 50 217 6.0 4.0 0.00 0.00 0.00 24 1013.9
20211017115935 50 233 7.0 7.0 0.00 0.00 0.00 24 1013.9
20211017115438 51 193 0.0 0.0 0.00 0.00 0.00 23 1013.9
20211017114940 51 193 1.0 0.0 0.00 0.00 0.00 23 1013.9
20211017114442 51 195 6.0 6.0 0.00 0.00 0.00 23 1013.9
20211017113941 51 200 4.0 6.0 0.00 0.00 0.00 23 1013.9
20211017113443 51 200 4.0 5.0 0.00 0.00 0.00 22 1013.9
20211017112945 51 201 6.0 4.0 0.00 0.00 0.00 22 1014.0
20211017112448 52 210 6.0 7.0 0.00 0.00 0.00 22 1014.0
20211017111952 51 187 5.0 5.0 0.00 0.00 0.00 23 1014.0
20211017111452 51 194 5.0 5.0 0.00 0.00 0.00 23 1014.1
20211017110952 52 201 6.0 5.0 0.00 0.00 0.00 23 1014.2
20211017110453 52 219 6.0 6.0 0.00 0.00 0.00 23 1014.2
20211017105955 52 217 6.0 7.0 0.00 0.00 0.00 23 1014.2
20211017105459 52 217 7.0 6.0 0.00 0.00 0.00 23 1014.3
20211017105000 52 207 7.0 6.0 0.00 0.00 0.00 23 1014.3
20211017104502 52 219 8.0 9.0 0.00 0.00 0.00 23 1014.5
20211017104001 53 229 6.0 7.0 0.00 0.00 0.00 22 1014.5
20211017103503 53 215 6.0 5.0 0.00 0.00 0.00 22 1014.5
20211017103006 54 221 6.0 7.0 0.00 0.00 0.00 22 1014.6
20211017102508 54 214 8.0 7.0 0.00 0.00 0.00 22 1014.6
20211017102010 54 208 9.0 9.0 0.00 0.00 0.00 22 1014.7
20211017101512 53 207 10.0 10.0 0.00 0.00 0.00 23 1014.7
20211017101011 53 229 8.0 10.0 0.00 0.00 0.00 23 1014.8
20211017100514 53 211 6.0 6.0 0.00 0.00 0.00 24 1014.8
20211017100016 53 195 6.0 6.0 0.00 0.00 0.00 24 1014.9
20211017095518 52 207 8.0 7.0 0.00 0.00 0.00 25 1014.9
20211017095021 51 210 8.0 8.0 0.00 0.00 0.00 25 1015.0
20211017094523 50 221 0.0 0.0 0.00 0.00 0.00 25 1015.0
20211017094021 50 221 0.0 0.0 0.00 0.00 0.00 26 1015.1
20211017093524 50 221 0.0 0.0 0.00 0.00 0.00 25 1015.1
20211017093026 51 221 0.0 0.0 0.00 0.00 0.00 24 1015.3
20211017092528 52 221 0.0 0.0 0.00 0.00 0.00 23 1015.3
20211017092030 53 221 0.0 0.0 0.00 0.00 0.00 22 1015.4
20211017091533 53 233 5.0 5.0 0.00 0.00 0.00 22 1015.4
20211017091032 54 212 6.0 6.0 0.00 0.00 0.00 21 1015.4
20211017090534 53 204 6.0 7.0 0.00 0.00 0.00 22 1015.4
20211017090036 53 193 7.0 7.0 0.00 0.00 0.00 23 1015.4
20211017085537 52 203 8.0 7.0 0.00 0.00 0.00 23 1015.4
20211017085040 52 214 8.0 7.0 0.00 0.00 0.00 23 1015.4
20211017084542 52 211 8.0 9.0 0.00 0.00 0.00 23 1015.4
20211017084041 52 221 9.0 9.0 0.00 0.00 0.00 24 1015.5
20211017083543 52 233 9.0 10.0 0.00 0.00 0.00 24 1015.5
20211017083045 52 231 9.0 10.0 0.00 0.00 0.00 24 1015.5
20211017082548 52 226 9.0 9.0 0.00 0.00 0.00 23 1015.5
20211017082050 52 210 7.0 7.0 0.00 0.00 0.00 24 1015.5
20211017081552 52 232 8.0 8.0 0.00 0.00 0.00 24 1015.6
20211017081050 51 224 8.0 9.0 0.00 0.00 0.00 24 1015.6
20211017080552 51 208 9.0 8.0 0.00 0.00 0.00 23 1015.5
20211017080054 52 221 9.0 9.0 0.00 0.00 0.00 23 1015.5
20211017075557 52 229 8.0 8.0 0.00 0.00 0.00 23 1015.5
20211017075059 52 226 7.0 8.0 0.00 0.00 0.00 23 1015.6
20211017074601 52 224 7.0 8.0 0.00 0.00 0.00 23 1015.6
20211017074100 52 229 7.0 7.0 0.00 0.00 0.00 23 1015.6
20211017073602 52 221 7.0 7.0 0.00 0.00 0.00 23 1015.7
20211017073105 52 226 8.0 8.0 0.00 0.00 0.00 23 1015.7
20211017072607 52 233 7.0 8.0 0.00 0.00 0.00 22 1015.8
20211017072109 52 225 8.0 7.0 0.00 0.00 0.00 22 1015.8
20211017071611 52 229 8.0 8.0 0.00 0.00 0.00 22 1016.0
20211017071110 53 239 7.0 8.0 0.00 0.00 0.00 22 1016.0
20211017070612 53 256 6.0 6.0 0.00 0.00 0.00 21 1016.0
20211017070115 54 207 0.0 0.0 0.00 0.00 0.00 20 1016.0
20211017065617 55 207 0.0 0.0 0.00 0.00 0.00 20 1016.1
20211017065119 56 207 0.0 0.0 0.00 0.00 0.00 19 1016.1
20211017064622 57 207 1.0 0.0 0.00 0.00 0.00 18 1016.1
20211017064121 58 208 4.0 4.0 0.00 0.00 0.00 18 1016.2
20211017063623 59 226 6.0 6.0 0.00 0.00 0.00 17 1016.2
20211017063125 60 201 8.0 8.0 0.00 0.00 0.00 17 1016.1
20211017062627 60 195 9.0 10.0 0.00 0.00 0.00 17 1016.2
20211017062129 60 190 9.0 8.0 0.00 0.00 0.00 17 1016.1
20211017061632 61 179 9.0 7.0 0.00 0.00 0.00 17 1016.1
20211017061131 61 183 10.0 10.0 0.00 0.00 0.00 17 1016.0
20211017060633 61 176 11.0 12.0 0.00 0.00 0.00 17 1016.0
20211017060135 61 187 11.0 11.0 0.00 0.00 0.00 17 1016.0
20211017055637 61 197 11.0 12.0 0.00 0.00 0.00 17 1016.0
20211017055140 61 198 11.0 11.0 0.00 0.00 0.00 17 1016.0
20211017054642 61 180 11.0 10.0 0.00 0.00 0.00 17 1016.0
20211017054141 61 197 12.0 12.0 0.00 0.00 0.00 17 1016.0
20211017053643 61 193 11.0 11.0 0.00 0.00 0.00 16 1016.0
20211017053145 62 201 11.0 8.0 0.00 0.00 0.00 16 1016.0
20211017052648 61 195 11.0 10.0 0.00 0.00 0.00 16 1016.0
20211017052150 61 204 10.0 11.0 0.00 0.00 0.00 17 1016.1
20211017051653 60 197 11.0 13.0 0.00 0.00 0.00 17 1016.1
20211017051151 59 197 11.0 12.0 0.00 0.00 0.00 17 1016.2
20211017050653 59 208 11.0 10.0 0.00 0.00 0.00 17 1016.2
20211017050156 59 198 10.0 9.0 0.00 0.00 0.00 17 1016.2
20211017045658 59 218 10.0 9.0 0.00 0.00 0.00 17 1016.2
20211017045159 59 215 10.0 10.0 0.00 0.00 0.00 17 1016.2
20211017044701 58 207 10.0 9.0 0.00 0.00 0.00 17 1016.1
20211017044200 57 211 9.0 10.0 0.00 0.00 0.00 17 1016.1
20211017043702 57 214 9.0 10.0 0.00 0.00 0.00 17 1016.1
20211017043205 56 211 10.0 10.0 0.00 0.00 0.00 17 1016.0
20211017042707 56 224 8.0 7.0 0.00 0.00 0.00 17 1016.0
20211017042209 56 231 7.0 7.0 0.00 0.00 0.00 17 1016.0
20211017041711 56 228 8.0 8.0 0.00 0.00 0.00 17 1016.0
20211017041211 56 238 8.0 9.0 0.00 0.00 0.00 17 1015.8
20211017040713 56 214 7.0 7.0 0.00 0.00 0.00 17 1015.8
20211017040215 55 226 8.0 6.0 0.00 0.00 0.00 18 1015.8
20211017035717 55 214 8.0 9.0 0.00 0.00 0.00 18 1015.7
20211017035219 54 212 8.0 6.0 0.00 0.00 0.00 18 1015.7
20211017034722 54 212 8.0 8.0 0.00 0.00 0.00 18 1015.7
20211017034221 54 233 7.0 6.0 0.00 0.00 0.00 18 1015.6
20211017033723 54 238 6.0 7.0 0.00 0.00 0.00 18 1015.5
20211017033225 55 239 7.0 7.0 0.00 0.00 0.00 17 1015.5
20211017032727 55 249 7.0 6.0 0.00 0.00 0.00 16 1015.5
20211017032230 55 250 5.0 6.0 0.00 0.00 0.00 17 1015.4
20211017031733 55 271 6.0 6.0 0.00 0.00 0.00 17 1015.5
20211017031231 54 257 6.0 7.0 0.00 0.00 0.00 18 1015.5
20211017030733 54 255 6.0 6.0 0.00 0.00 0.00 17 1015.4
20211017030235 55 257 6.0 6.0 0.00 0.00 0.00 16 1015.4
20211017025738 55 262 6.0 6.0 0.00 0.00 0.00 17 1015.3
20211017025240 55 267 5.0 6.0 0.00 0.00 0.00 17 1015.3
20211017024742 56 83 0.0 0.0 0.00 0.00 0.00 16 1015.3
20211017024241 57 83 0.0 0.0 0.00 0.00 0.00 16 1015.3
20211017023743 57 83 0.0 0.0 0.00 0.00 0.00 15 1015.3
20211017023245 58 83 0.0 0.0 0.00 0.00 0.00 15 1015.3
20211017022748 59 83 0.0 0.0 0.00 0.00 0.00 15 1015.4
20211017022250 59 83 0.0 0.0 0.00 0.00 0.00 14 1015.3
20211017021752 60 83 0.0 0.0 0.00 0.00 0.00 14 1015.4
20211017021251 60 83 0.0 0.0 0.00 0.00 0.00 14 1015.3
20211017020753 61 83 0.0 0.0 0.00 0.00 0.00 14 1015.3
20211017020256 61 83 0.0 0.0 0.00 0.00 0.00 14 1015.3
20211017015758 62 83 0.0 0.0 0.00 0.00 0.00 13 1015.1
20211017015300 62 83 0.0 0.0 0.00 0.00 0.00 13 1015.1
20211017014802 63 83 0.0 0.0 0.00 0.00 0.00 13 1015.1
20211017014301 63 83 0.0 0.0 0.00 0.00 0.00 12 1015.1
20211017013804 64 83 0.0 0.0 0.00 0.00 0.00 12 1015.3
20211017013306 65 83 0.0 0.0 0.00 0.00 0.00 12 1015.1
20211017012808 65 83 0.0 0.0 0.00 0.00 0.00 11 1015.3
20211017012310 66 80 0.0 5.0 0.00 0.00 0.00 11 1015.3
20211017011812 66 52 0.0 0.0 0.00 0.00 0.00 11 1015.3
20211017011312 67 52 0.0 0.0 0.00 0.00 0.00 10 1015.3
20211017010814 68 52 0.0 0.0 0.00 0.00 0.00 10 1015.3
20211017010316 68 72 5.0 5.0 0.00 0.00 0.00 10 1015.3
20211017005818 69 69 5.0 4.0 0.00 0.00 0.00 9 1015.3
20211017004823 70 51 1.0 0.0 0.00 0.00 0.00 8 1015.4
20211017004322 71 42 0.0 0.0 0.00 0.00 0.00 8 1015.4
20211017003824 71 37 0.0 0.0 0.00 0.00 0.00 8 1015.4
20211017003326 71 37 0.0 0.0 0.00 0.00 0.00 8 1015.5
20211017002828 72 91 0.0 0.0 0.00 0.00 0.00 8 1015.6
20211017002331 72 91 0.0 0.0 0.00 0.00 0.00 8 1015.7
20211017001833 72 41 0.0 0.0 0.00 0.00 0.00 8 1015.8
20211017001332 73 39 3.0 5.0 0.00 0.00 0.00 8 1015.8
20211017000834 73 68 0.0 0.0 0.00 0.00 0.00 6 1015.8
20211017000339 73 46 1.0 0.0 0.00 0.00 0.00 7 1015.8
20211016235839 74 46 0.0 0.0 0.00 0.00 0.00 7 1016.0
20211016235341 74 48 5.0 4.0 0.00 0.00 0.00 7 1016.0
20211016234843 74 41 0.0 0.0 0.00 0.00 0.00 7 1016.0
20211016234342 74 72 0.0 0.0 0.00 0.00 0.00 7 1016.0
20211016233844 74 72 5.0 0.0 0.00 0.00 0.00 7 1016.0
20211016233347 74 14 0.0 0.0 0.00 0.00 0.00 7 1016.0
20211016232849 75 83 0.0 0.0 0.00 0.00 0.00 7 1016.1
20211016231853 75 63 0.0 0.0 0.00 0.00 0.00 6 1016.2
20211016231352 75 69 6.0 4.0 0.00 0.00 0.00 6 1016.2
20211016230854 75 34 3.0 0.0 0.00 0.00 0.00 6 1016.2
20211016230357 75 17 3.0 0.0 0.00 0.00 0.00 6 1016.3
20211016225859 75 69 0.0 0.0 0.00 0.00 0.00 6 1016.3
20211016225401 75 69 0.0 0.0 0.00 0.00 0.00 6 1016.3
20211016224903 75 69 1.0 0.0 0.00 0.00 0.00 6 1016.4
20211016224402 75 118 3.0 5.0 0.00 0.00 0.00 6 1016.3
20211016223905 75 93 3.0 8.0 0.00 0.00 0.00 6 1016.4
20211016223407 76 51 5.0 6.0 0.00 0.00 0.00 6 1016.4
20211016222909 76 69 4.0 10.0 0.00 0.00 0.00 6 1016.4
20211016222411 76 42 6.0 5.0 0.00 0.00 0.00 6 1016.4
20211016221913 75 55 0.0 0.0 0.00 0.00 0.00 6 1016.4
20211016221412 75 55 6.0 5.0 0.00 0.00 0.00 6 1016.4
20211016220916 75 30 8.0 10.0 0.00 0.00 0.00 7 1016.5
20211016220417 75 55 7.0 7.0 0.00 0.00 0.00 7 1016.5
20211016215919 75 93 5.0 6.0 0.00 0.00 0.00 7 1016.4
20211016215421 75 18 10.0 10.0 0.00 0.00 0.00 7 1016.5
20211016214924 75 46 6.0 3.0 0.00 0.00 0.00 7 1016.5
20211016214423 75 68 10.0 6.0 0.00 0.00 0.00 7 1016.4
20211016213925 76 44 8.0 5.0 0.00 0.00 0.00 7 1016.5
20211016213427 76 44 9.0 8.0 0.00 0.00 0.00 7 1016.5
20211016212929 75 13 7.0 0.0 0.00 0.00 0.00 7 1016.5
20211016212433 75 48 1.0 6.0 0.00 0.00 0.00 7 1016.5
20211016211934 75 13 7.0 11.0 0.00 0.00 0.00 7 1016.8
20211016211433 75 10 7.0 9.0 0.00 0.00 0.00 7 1016.8
20211016210935 75 333 6.0 3.0 0.00 0.00 0.00 7 1016.8
20211016210438 75 72 6.0 3.0 0.00 0.00 0.00 7 1016.9
20211016205940 75 58 0.0 0.0 0.00 0.00 0.00 7 1016.9
20211016205442 75 46 7.0 4.0 0.00 0.00 0.00 7 1017.0
20211016204944 75 80 6.0 6.0 0.00 0.00 0.00 7 1017.1
20211016204443 75 60 3.0 7.0 0.00 0.00 0.00 7 1017.2
20211016203946 75 359 1.0 0.0 0.00 0.00 0.00 7 1017.3
20211016203448 74 56 4.0 9.0 0.00 0.00 0.00 8 1017.3
20211016202950 74 100 10.0 7.0 0.00 0.00 0.00 8 1017.4
20211016202452 74 52 8.0 7.0 0.00 0.00 0.00 8 1017.4
20211016201954 73 27 3.0 9.0 0.00 0.00 0.00 8 1017.4
20211016201453 73 68 4.0 0.0 0.00 0.00 0.00 9 1017.6
20211016200956 72 94 7.0 8.0 0.00 0.00 0.00 9 1017.7
20211016200458 72 87 13.0 8.0 0.00 0.00 0.00 9 1017.8
20211016200000 72 30 8.0 10.0 0.00 0.00 0.00 9 1017.8
20211016195503 72 69 11.0 15.0 0.00 0.00 0.00 9 1017.9
20211016195005 72 82 7.0 9.0 0.00 0.00 0.00 9 1018.0
20211016194504 72 48 11.0 7.0 0.00 0.00 0.00 9 1018.1
20211016194008 72 79 10.0 10.0 0.00 0.00 0.00 9 1018.3
20211016193508 72 39 8.0 8.0 0.00 0.00 0.00 9 1018.3
20211016193011 71 76 4.0 3.0 0.00 0.00 0.00 10 1018.3
20211016192513 71 65 6.0 8.0 0.00 0.00 0.00 10 1018.4
20211016192015 70 94 7.0 8.0 0.00 0.00 0.00 10 1018.4